TimeAKDT,TemperatureF,Dew PointF,Humidity,Sea Level PressureIn,VisibilityMPH,Wind Direction,Wind SpeedMPH,Gust SpeedMPH,PrecipitationIn,Events,Conditions,WindDirDegrees,DateUTC
12:53 AM,43.0,41.0,93,29.90,10.0,ENE,16.1,-,N/A,,Overcast,60,2013-08-16 08:53:00
1:53 AM,43.0,41.0,93,29.89,10.0,ENE,16.1,-,N/A,,Overcast,70,2013-08-16 09:53:00
2:53 AM,44.1,43.0,96,29.88,1.5,NE,17.3,-,0.00,,Light Drizzle,50,2013-08-16 10:53:00
3:53 AM,45.0,44.1,97,29.86,2.0,ENE,17.3,-,0.00,,Light Drizzle,60,2013-08-16 11:53:00
4:01 AM,44.6,44.6,100,29.85,5.0,ENE,17.3,23.0,0.00,,Overcast,70,2013-08-16 12:01:00
4:53 AM,45.0,43.0,93,29.84,10.0,ENE,21.9,-,0.00,,Overcast,70,2013-08-16 12:53:00
5:53 AM,45.0,43.0,93,29.83,10.0,East,19.6,27.6,N/A,,Overcast,80,2013-08-16 13:53:00
6:53 AM,45.0,43.0,93,29.82,10.0,East,20.7,-,N/A,,Overcast,80,2013-08-16 14:53:00
7:53 AM,44.1,43.0,96,29.82,10.0,East,18.4,-,N/A,,Overcast,80,2013-08-16 15:53:00
8:53 AM,45.0,42.1,90,29.81,10.0,East,19.6,-,N/A,,Overcast,80,2013-08-16 16:53:00
9:53 AM,45.0,42.1,90,29.81,10.0,East,21.9,-,N/A,,Overcast,80,2013-08-16 17:53:00
10:53 AM,45.0,42.1,90,29.81,10.0,East,17.3,25.3,N/A,,Overcast,90,2013-08-16 18:53:00
11:53 AM,44.1,42.1,93,29.80,7.0,East,19.6,25.3,0.00,Rain,Light Rain,80,2013-08-16 19:53:00
12:53 PM,45.0,43.0,93,29.79,7.0,East,21.9,28.8,0.02,,Overcast,80,2013-08-16 20:53:00
1:53 PM,46.0,43.0,89,29.79,10.0,East,17.3,23.0,N/A,,Overcast,80,2013-08-16 21:53:00
2:53 PM,45.0,43.0,93,29.78,10.0,East,19.6,-,N/A,,Overcast,80,2013-08-16 22:53:00
3:53 PM,45.0,43.0,93,29.78,10.0,East,19.6,25.3,N/A,,Overcast,80,2013-08-16 23:53:00
4:46 PM,44.6,42.8,93,29.76,9.0,East,17.3,24.2,0.00,,Overcast,80,2013-08-17 00:46:00
4:53 PM,45.0,43.0,93,29.77,5.0,East,15.0,24.2,0.00,,Overcast,80,2013-08-17 00:53:00
5:53 PM,44.1,43.0,96,29.76,6.0,East,17.3,-,0.00,Rain,Light Rain,80,2013-08-17 01:53:00
6:53 PM,43.0,43.0,100,29.75,4.0,East,15.0,-,0.01,Rain,Light Rain,80,2013-08-17 02:53:00
7:32 PM,44.6,42.8,93,29.74,2.5,East,11.5,-,0.00,Rain,Light Rain,80,2013-08-17 03:32:00
7:46 PM,42.8,42.8,100,29.74,1.8,East,15.0,-,0.02,Rain,Rain,80,2013-08-17 03:46:00
7:53 PM,43.0,43.0,100,29.75,2.0,East,13.8,-,0.02,Rain,Light Rain,80,2013-08-17 03:53:00
8:53 PM,44.1,43.0,96,29.75,1.5,East,11.5,-,0.01,,Overcast,90,2013-08-17 04:53:00
9:53 PM,43.0,43.0,100,29.75,1.0,East,10.4,-,0.00,,Light Drizzle,80,2013-08-17 05:53:00
10:06 PM,42.8,42.8,100,29.74,0.8,East,9.2,-,0.00,,Light Drizzle,80,2013-08-17 06:06:00
10:53 PM,42.1,42.1,100,29.74,0.5,ENE,8.1,-,0.00,Fog,Light Drizzle,70,2013-08-17 06:53:00
11:53 PM,42.1,42.1,100,29.74,0.5,ENE,5.8,-,0.00,Fog,Fog,60,2013-08-17 07:53:00